Погода в Войлове

Россия / Калужская область     53°48′55″N   34°32′42″E
темп.,
°C
ветер,
м/с
пор.,
м/с
влажн.,
%
обл.,
%
осадки,
мм/ч
давл.,
гПа
погр.,
м
23 апреля, пт
пт2300:00+7ю311925 0.8 1014284
03:00+6ю3119655 0.8 1014295
06:00+7ю41294100 0.4 1013475
09:00+9ююз51088100 0.9 1013888
12:00+5зсз4693100 2.4 1014511
15:00+8з2577100 4.9 10141010
18:00+9з2568100 0.1 1013484
21:00+5зюз2279100 0.1 101324
24 апреля, сб
сб2400:00+4з2684100 0.1 1012220
03:00+3з2588100 0.2 1012162
06:00+1з25925 0.0 1011129
09:00+5зюз35705 0.2 1010751
12:00+7зюз4561100 1.4 10101555
15:00+5з677394 2.4 10101207
18:00+3зсз5109392 1.6 1011766
21:00+3з41178100 1.8 1013714
25 апреля, вс
вс2500:00+1з4128725 0.0 1014482
03:00−1зюз311915 0.0 1015351
06:00−1юз411905 0.0 1015403
09:00+4зюз511655 0.0 10141330
12:00+4з5862100 0.0 10141360
15:00+6зюз586099 0.6 10141447
18:00+6з465263 0.0 10121791
21:000з25804 0.1 101490
26 апреля, пн
пн2600:00−1зюз27875 0.0 1015146
03:00−2юз27905 0.0 1015160
06:00−2зюз25895 0.0 1015148
09:00+4зюз24575 0.0 1015847
12:00+7зюз3443100 0.3 10132100
15:00+7зюз3551100 1.1 10121575
18:00+5зюз3570100 0.8 1011833
21:00+2з1187100 1.5 101111
27 апреля, вт
вт2700:000зюз2691100 0.0 1012138
03:00−1зюз279394 0.0 1012169
06:00−2зюз279455 0.0 1012190
09:00+4зюз467418 0.0 1012698
12:00+7з5757100 1.1 10121800
15:00+7з464988 2.1 10121841
18:00+7зюз46605 0.4 10131232
21:00+1зюз24825 0.6 101569